CST,Max TemperatureF,Mean TemperatureF,Min TemperatureF,Max Dew PointF,MeanDew PointF,Min DewpointF,Max Humidity, Mean Humidity, Min Humidity, Max Sea Level PressureIn, Mean Sea Level PressureIn, Min Sea Level PressureIn, Max VisibilityMiles, Mean VisibilityMiles, Min VisibilityMiles, Max Wind SpeedMPH, Mean Wind SpeedMPH, Max Gust SpeedMPH,PrecipitationIn, CloudCover, Events, WindDirDegrees
2013-3-1,75,72,68,70,66,57,94,83,68,30.04,29.96,29.89,6,6,5,20,9,,1.35,8,Rain,330
2013-3-2,75,67,57,59,51,41,78,59,29,30.18,30.11,30.02,7,7,6,26,11,33,0.00,5,,316
2013-3-3,73,63,51,52,49,46,88,66,41,30.22,30.17,30.11,7,7,7,16,7,29,0.00,3,,311
2013-3-4,75,62,48,55,52,46,93,67,44,30.20,30.13,30.05,7,7,7,10,4,,0.00,0,,86
2013-3-5,78,68,59,59,58,54,94,68,47,30.12,30.08,30.04,7,7,7,16,6,,0.00,2,,117
2013-3-6,80,68,57,63,58,54,100,73,42,30.19,30.14,30.07,7,7,7,14,5,,0.00,3,,348
2013-3-7,78,68,59,64,60,55,100,74,54,30.18,30.14,30.09,7,7,7,14,6,,0.00,2,,22
2013-3-8,77,67,57,61,57,54,94,68,50,30.17,30.12,30.08,7,7,7,15,5,,0.00,3,,50
2013-3-9,80,73,66,64,61,57,78,65,45,30.11,30.05,30.00,7,7,7,16,8,,0.00,3,,101
2013-3-10,82,78,73,70,64,52,78,62,39,29.96,29.93,29.88,7,7,7,23,15,25,0.00,3,,125
2013-3-11,82,78,75,73,71,70,89,79,70,29.94,29.90,29.85,7,7,5,21,15,29,0.05,5,Rain,135
2013-3-12,77,73,69,73,71,68,100,92,83,30.06,29.98,29.90,7,6,2,10,5,,0.65,7,Rain,319
2013-3-13,77,72,68,68,61,59,94,70,57,30.16,30.10,30.00,7,7,7,14,7,22,0.00,6,,357
2013-3-14,77,73,69,57,57,55,60,57,50,30.21,30.16,30.11,7,7,7,12,8,24,0.00,5,,20
2013-3-15,77,68,59,55,55,54,88,61,47,30.22,30.15,30.11,7,7,7,13,7,,0.00,3,,49
2013-3-16,80,68,57,64,62,55,94,71,51,30.11,30.05,29.98,7,7,7,16,6,28,0.00,3,,91
2013-3-17,82,78,73,73,69,64,89,73,61,30.01,29.96,29.91,7,6,6,18,12,,0.00,5,,134
2013-3-18,84,80,77,73,73,72,89,79,66,29.97,29.92,29.87,7,6,6,23,13,29,0.00,5,,150
2013-3-19,84,80,75,73,72,72,89,79,66,29.98,29.93,29.86,7,7,7,21,11,,0.00,5,,129
2013-3-20,84,80,75,72,71,70,89,77,62,29.94,29.89,29.83,7,7,7,20,10,,0.00,4,,129
2013-3-21,86,76,66,72,71,66,100,80,62,29.93,29.86,29.80,7,7,6,16,7,,0.00,3,,133
2013-3-22,84,80,77,73,71,70,83,74,62,29.90,29.85,29.80,7,7,7,22,15,,0.00,4,,155
2013-3-23,86,82,78,73,72,70,83,74,62,29.90,29.82,29.76,7,7,6,26,17,38,0.00,3,,155
2013-3-24,84,81,78,75,74,72,89,80,70,29.80,29.75,29.66,7,6,5,20,14,,0.00,4,,151
2013-3-25,80,76,71,77,72,66,100,88,73,30.01,29.88,29.73,5,4,2,12,6,,0.15,7,Rain,7
2013-3-26,75,72,69,68,60,57,94,66,53,30.21,30.12,30.00,6,6,4,13,8,23,0.00,7,Rain,12
2013-3-27,71,66,62,64,59,55,88,72,60,30.23,30.19,30.13,7,6,3,9,6,,0.05,6,Rain,347
2013-3-28,77,68,59,59,56,54,88,64,47,30.21,30.16,30.13,7,7,6,12,5,23,0.00,3,,29
2013-3-29,80,68,55,63,59,54,94,64,51,30.20,30.14,30.10,7,7,7,16,7,,0.00,4,,76
2013-3-30,80,71,62,70,63,57,88,67,47,30.14,30.08,30.03,8,7,6,16,8,,0.15,5,Rain,98
2013-3-31,82,78,73,73,69,66,89,74,61,30.06,30.00,29.96,7,7,6,17,11,,0.00,4,,125